Location: Diebersbach
(48.5163°N, 8.0558°E)
Time: 23:41:41
(UTC+00:00)

FENGYUN 1C DEB - Pass Details

Date: 29 January 2022
Orbit: 690 x 984 km, 98.6° (Epoch: 23 May)

Event Time Altitude Azimuth Distance (km) Brightness Sun altitude
Rises 05:54:59 0° 19° (NNE) 3,602 ? -11.1°
Reaches altitude 10° 05:57:41 10° 27° (NNE) 2,615 ? -10.6°
Maximum altitude 06:03:06 39° 95° (E) 1,290 ? -9.8°
Drops below altitude 10° 06:08:06 10° 164° (SSE) 2,417 ? -9.0°
Sets 06:10:31 0° 172° (S) 3,299 ? -8.6°
